Theta_e
306 307 306 308 307 306 307 307 308 309 310 310 312 312 313 314 314 313 313 313 312 312 312 312 314 312 312 312 311 310 308 309 306 311 313 315 314 316 318 320 320 322 322
305 305 306 307 305 305 305 307 308 308 310 310 311 312 313 313 313 313 313 314 313 312 313 315 314 312 311 312 311 311 311 311 308 306 312 310 313 316 316 318 321 323 322
306 305 304 304 304 304 305 306 307 308 309 311 312 312 312 313 314 314 315 314 313 312 313 313 313 310 311 312 312 312 313 312 311 309 310 312 311 316 318 320 321 322 324
304 302 302 301 303 306 307 306 306 308 308 311 313 311 312 314 315 315 314 314 312 312 312 313 313 310 310 311 312 312 311 309 310 309 309 309 311 314 317 313 311 318 318
301 301 301 302 303 304 304 305 306 307 308 312 313 313 311 311 313 314 314 314 312 311 313 314 314 312 315 316 313 310 310 309 310 308 308 309 310 312 312 313 311 312 311
300 300 302 302 302 302 303 304 305 305 307 308 311 311 313 312 309 310 313 312 311 311 311 313 314 314 311 313 314 313 313 310 310 309 311 310 311 312 313 313 313 311 307
300 301 301 301 301 302 303 303 303 303 306 306 308 310 311 312 307 306 309 313 310 312 313 314 312 312 313 314 313 313 312 312 313 314 313 312 311 313 312 309 307 310 310
299 299 300 301 301 302 302 301 300 302 303 304 307 310 310 312 306 304 305 312 311 310 313 313 312 308 309 312 314 311 310 311 315 315 315 315 316 315 313 311 310 308 309
298 299 300 301 300 301 300 299 299 301 305 306 310 311 311 312 306 303 305 310 309 310 311 313 311 311 302 304 313 308 308 310 308 306 306 305 304 305 310 311 308 308 305
298 300 300 301 300 298 298 298 299 301 305 309 308 310 310 310 305 301 306 311 308 308 309 311 308 311 301 303 313 309 306 308 311 311 312 310 310 309 307 315 312 310 309
300 301 301 301 299 298 298 298 299 301 305 307 307 309 310 311 311 301 302 309 308 307 307 310 311 303 300 299 305 311 309 308 308 313 312 312 314 315 316 315 313 315 313
300 300 300 299 299 298 297 298 300 300 304 304 305 306 308 311 303 300 300 301 304 308 309 310 310 299 298 298 304 297 298 302 309 310 311 311 311 312 313 315 315 316 315
299 299 298 298 299 298 297 298 300 301 304 302 302 303 304 306 309 298 297 298 301 310 312 307 301 296 296 297 297 297 300 308 308 308 307 309 311 312 311 313 315 315 314
299 299 298 296 299 298 298 299 301 302 302 302 300 300 301 304 305 307 305 303 302 306 305 304 302 301 299 301 302 303 306 306 306 306 306 307 309 311 309 312 314 314 314
300 299 298 296 297 297 298 300 302 304 301 301 302 300 300 300 301 295 300 306 305 304 305 305 305 303 302 303 304 304 304 304 305 305 305 307 312 311 311 311 313 313 313
299 299 297 296 296 297 297 298 298 295 295 295 293 295 301 298 295 294 294 293 296 296 306 304 303 304 303 303 304 304 305 303 304 305 306 307 309 312 311 312 312 312 312
298 298 297 295 297 297 297 296 297 299 298 295 292 292 292 293 292 294 293 294 293 298 308 306 304 304 304 305 306 305 307 306 307 306 307 308 307 309 310 312 312 312 312
298 296 297 296 297 297 295 295 296 296 297 298 297 294 293 292 293 294 293 296 305 303 306 307 307 307 307 309 311 311 311 311 309 308 307 308 309 309 307 309 310 312 312
298 298 297 297 296 295 295 295 295 295 296 296 298 297 296 293 295 294 294 307 308 308 308 307 307 308 310 311 310 310 311 312 312 310 309 308 309 309 309 310 310 298 302
298 296 295 297 296 296 295 295 295 295 295 295 296 297 298 298 300 302 304 307 308 308 308 309 310 310 309 309 310 313 313 311 311 309 310 310 309 309 308 308 308 308 308
299 299 295 298 297 297 295 295 295 295 295 295 296 296 286 296 298 300 302 304 307 308 310 311 312 312 311 311 311 312 310 314 313 308 310 310 310 309 309 309 308 307 307
300 299 298 298 298 297 296 296 295 295 295 296 297 297 287 297 298 299 300 303 304 304 307 308 312 314 314 313 311 313 314 313 312 312 312 310 310 310 309 309 308 308 307
300 299 299 298 298 295 296 296 295 295 295 296 296 297 297 298 298 299 299 301 304 304 305 306 309 313 315 317 316 315 314 313 312 312 311 312 311 310 309 308 308 307 307
300 300 299 299 298 297 296 296 296 293 296 296 297 297 297 298 298 299 300 301 302 303 304 304 304 305 308 312 313 315 313 311 312 312 311 312 312 310 312 309 309 308 308
300 300 300 300 299 298 297 296 297 298 298 298 298 298 298 298 298 298 299 300 301 302 303 303 303 304 305 307 314 313 300 289 306 297 310 308 310 311 312 311 310 310 308
302 301 301 302 300 298 297 297 297 298 298 299 299 299 299 299 299 299 299 300 300 301 302 302 303 304 306 307 310 301 288 288 294 287 305 308 308 308 311 312 312 310 310
Wind_Speed
4 4 5 6 7 6 5 6 7 7 8 9 9 10 10 8 6 6 5 4 6 5 6 7 7 5 4 4 5 5 6 5 6 4 2 2 4 6 2 2 3 4 3
4 5 5 6 6 6 6 6 7 9 9 9 10 11 9 7 5 6 5 5 6 6 7 6 6 2 5 5 4 6 5 6 4 6 1 2 2 3 2 5 4 2 4
4 4 5 6 7 7 6 7 8 9 9 10 9 10 8 7 7 6 5 4 3 6 5 4 4 3 4 3 2 4 3 2 3 3 2 1 1 1 3 4 4 5 4
5 6 6 7 8 8 8 6 8 8 9 9 8 6 7 6 7 7 4 4 2 5 5 4 4 3 3 4 2 1 0 2 3 2 1 1 1 1 2 4 5 4 6
6 6 6 7 8 8 8 8 7 8 8 8 7 5 5 5 4 5 3 2 5 5 6 2 4 2 4 2 1 0 3 3 3 4 3 1 1 1 3 2 4 7 7
5 6 7 7 8 9 8 8 8 9 9 7 7 6 6 5 7 9 6 4 7 5 4 3 1 1 2 6 5 4 6 1 3 4 3 6 2 3 4 3 7 7 5
6 7 8 8 9 9 9 8 8 9 8 8 8 7 7 5 8 9 8 5 4 4 4 4 2 3 0 4 4 6 8 2 3 1 6 5 5 3 3 3 4 5 5
6 6 8 8 9 8 8 9 8 6 8 7 7 7 6 5 8 8 8 5 4 4 4 2 4 1 1 5 3 3 5 5 3 3 4 5 6 6 4 3 5 6 6
6 7 7 7 8 8 8 10 9 7 8 6 6 7 6 6 6 7 8 5 4 5 2 3 4 3 2 4 4 1 5 7 8 9 9 10 9 8 6 6 7 8 3
7 7 8 7 7 8 8 9 5 7 9 5 7 4 6 6 4 7 8 5 5 3 2 3 6 3 5 3 3 3 4 2 5 6 6 7 7 6 6 4 5 6 4
6 7 8 8 6 6 7 4 6 7 7 6 6 5 6 4 3 5 7 5 5 4 2 2 2 5 4 1 6 3 3 3 3 5 5 5 5 4 3 2 2 2 3
6 6 7 8 6 6 7 7 7 5 6 6 6 5 5 6 3 6 9 7 6 4 3 2 2 6 6 7 6 8 8 5 3 4 4 3 4 4 3 2 3 2 1
5 6 6 8 7 5 5 8 7 4 3 4 5 5 6 7 2 2 6 8 8 3 2 1 3 6 7 8 8 9 5 3 3 3 3 2 2 3 4 4 3 4 4
5 4 6 6 9 6 5 5 5 4 4 6 5 5 6 6 4 4 2 2 5 5 5 4 4 5 4 5 5 4 3 2 2 2 1 1 1 3 3 2 2 2 2
4 3 4 5 5 6 4 4 3 3 3 3 4 3 5 6 5 4 2 3 4 4 5 2 2 3 4 3 2 3 2 1 1 2 2 1 3 3 3 3 2 2 2
3 2 3 4 4 4 3 5 4 7 5 6 6 4 3 7 9 5 3 7 6 9 2 2 2 3 4 5 4 3 2 4 3 3 3 2 2 3 4 3 2 3 3
4 4 3 4 4 4 3 4 5 7 8 7 5 1 5 9 5 3 4 7 7 6 2 3 2 3 4 5 4 3 3 4 4 4 4 3 4 3 4 4 3 3 4
4 7 3 4 4 4 3 3 3 4 5 5 3 4 7 8 7 3 5 5 3 2 2 3 4 4 4 4 4 4 5 4 5 4 4 4 5 5 5 4 4 3 3
4 4 4 3 3 4 3 3 3 4 4 5 3 5 7 9 7 5 4 1 3 3 3 3 3 4 5 4 3 2 3 5 5 5 6 6 5 4 4 3 3 3 3
4 8 6 4 3 3 2 3 3 4 4 4 5 4 5 4 3 4 2 1 2 2 3 3 3 4 6 5 4 3 2 3 4 4 5 6 7 6 6 6 5 5 5
4 4 6 4 5 4 3 4 4 4 5 4 5 4 4 2 3 3 2 2 1 2 3 4 3 3 3 4 4 5 2 3 3 3 4 5 7 7 6 4 4 5 5
6 5 5 6 5 5 5 4 5 5 5 6 5 4 4 3 3 3 4 4 2 2 2 2 3 4 4 5 3 4 4 4 3 3 3 4 5 5 5 5 5 4 5
6 7 6 6 6 6 6 6 6 6 6 6 6 6 5 4 4 5 5 5 4 4 3 3 3 3 3 4 4 5 5 4 3 2 3 3 4 4 5 6 6 5 6
7 8 8 8 7 7 7 7 7 8 7 7 6 6 6 6 6 7 6 5 5 5 4 4 4 5 3 4 4 5 3 3 2 2 2 2 1 0 1 3 5 8 7
8 9 9 9 8 8 8 8 8 8 8 8 7 7 7 7 7 8 7 7 6 6 7 5 5 7 8 9 9 8 5 7 5 2 2 2 3 3 3 2 3 3 3
6 7 8 8 7 5 6 7 7 7 8 8 8 8 8 8 8 8 8 8 7 8 9 7 9 12 12 10 12 9 7 5 6 6 4 3 4 4 5 5 5 3 4
Wind_Direction
313 305 313 309 305 297 277 287 289 291 294 288 284 284 269 251 224 211 221 215 218 241 232 233 248 228 245 240 214 212 223 219 246 272 257 286 305 328 288 151 199 207 214
317 328 308 298 289 291 293 296 301 301 300 288 287 286 267 245 234 218 217 224 218 236 248 240 256 219 255 249 224 226 224 218 231 266 254 310 305 308 164 129 127 159 182
345 337 320 328 326 305 295 305 308 304 303 301 293 287 267 249 226 213 196 223 238 243 239 248 245 227 273 275 271 256 248 237 226 241 240 272 276 291 116 112 116 100 111
349 347 334 326 318 309 299 301 302 303 296 297 296 281 278 255 224 209 197 213 278 252 245 239 237 228 280 294 275 306 312 290 232 200 169 234 278 18 89 112 83 96 99
343 334 314 308 310 309 311 308 306 305 297 290 296 285 265 262 247 212 190 245 243 250 242 283 227 223 284 278 131 344 324 287 260 180 140 130 44 34 61 67 108 97 60
325 313 310 316 315 312 310 312 308 304 305 297 295 289 276 238 225 209 211 216 235 213 226 231 17 105 13 23 92 327 290 245 61 116 130 142 113 87 75 72 109 114 89
313 313 316 314 313 316 313 314 312 305 304 302 290 288 290 274 219 201 196 216 208 222 209 203 78 69 350 86 96 340 348 53 36 79 129 133 127 116 97 82 60 70 90
315 317 317 320 318 311 319 314 305 303 313 302 288 279 284 279 214 203 202 212 177 204 242 73 92 174 102 136 90 354 32 41 98 70 106 122 125 120 113 94 112 100 92
299 305 308 314 310 315 315 311 310 304 311 296 299 296 275 297 238 202 174 178 171 195 183 219 179 172 143 184 130 126 41 57 69 80 74 91 109 117 129 118 111 120 104
291 298 306 303 303 308 306 306 295 302 300 297 311 312 302 306 266 199 172 153 155 187 168 208 204 194 160 240 181 145 86 62 111 94 91 94 134 137 128 110 150 119 117
295 302 307 307 301 295 303 290 305 313 311 326 323 337 332 306 271 200 176 160 161 173 192 195 191 202 164 63 145 124 110 111 61 88 88 95 113 138 141 116 154 101 122
295 300 306 310 304 317 312 313 313 320 325 340 338 341 327 327 59 196 184 157 148 157 191 211 154 153 126 116 106 110 120 120 113 102 97 89 101 127 130 153 169 239 296
289 297 310 316 305 311 317 321 320 330 350 351 347 347 341 326 92 134 174 149 146 137 142 125 112 148 133 96 105 111 106 102 104 93 108 117 124 123 127 118 97 92 78
279 306 306 325 317 322 324 314 339 350 3 18 345 346 339 346 30 34 158 140 110 98 104 51 66 134 123 116 116 100 95 101 104 109 98 85 118 153 161 149 142 129 105
282 297 309 314 316 322 336 317 338 342 320 325 341 326 329 345 355 316 312 185 188 164 129 138 121 126 157 150 136 142 136 164 194 150 183 150 145 168 163 171 136 134 130
278 306 294 299 316 303 332 326 291 264 312 309 272 250 304 298 325 335 343 217 173 149 136 151 166 169 182 170 182 179 198 209 223 212 182 159 128 171 178 173 171 187 190
233 269 278 289 301 306 327 341 328 323 330 7 40 331 281 262 311 127 116 93 135 138 188 175 188 183 187 190 194 199 212 209 200 211 222 177 163 158 166 191 189 203 225
220 246 254 279 292 303 323 325 317 326 330 335 331 356 334 348 18 33 124 142 122 116 176 194 204 202 203 215 212 223 231 214 212 213 214 214 192 186 187 177 176 199 231
209 244 247 264 274 282 289 310 317 315 314 319 322 335 1 350 359 28 1 241 179 184 184 197 210 220 221 219 234 242 212 204 198 202 210 212 210 205 218 220 230 230 208
218 227 236 257 264 276 254 278 293 298 304 309 315 322 334 343 3 1 358 311 257 224 217 221 215 229 228 213 212 221 177 200 219 218 208 200 194 198 213 217 218 226 221
222 214 212 244 255 256 245 247 253 265 275 282 281 280 279 295 312 315 329 7 333 270 256 247 238 226 224 218 203 199 219 253 220 217 201 191 192 208 220 217 222 223 227
213 220 208 226 244 258 237 231 239 248 265 274 280 283 280 267 270 277 291 289 273 273 257 276 249 230 220 214 213 215 212 249 280 295 262 233 222 198 197 200 203 211 214
213 219 223 231 232 240 256 244 235 238 249 255 266 277 268 256 259 259 255 266 271 268 270 280 282 268 252 241 221 229 224 216 222 224 269 256 232 220 211 220 210 207 214
225 229 224 223 213 225 234 248 249 240 242 247 248 252 258 258 253 251 252 247 248 253 250 251 257 262 268 265 253 224 190 162 180 189 221 224 278 239 203 236 222 229 232
231 230 221 228 230 222 220 226 238 247 249 245 247 240 243 244 250 249 245 243 246 239 243 239 237 244 248 249 236 228 174 157 185 184 203 243 246 239 240 229 256 231 195
246 250 251 248 230 215 226 237 240 242 246 250 245 242 244 245 243 241 235 230 233 235 239 237 236 237 242 246 245 221 167 194 173 177 196 217 232 240 238 239 242 241 242